Wetterdaten Herbst 2012

Datum T max T min Regen
01.09.2012 18.4 °C 12.6 °C 0.4 mm
02.09.2012 20 °C 13.2 °C 0 mm
03.09.2012 23.1 °C 14.1 °C 0 mm
04.09.2012 25.1 °C 13.1 °C 0 mm
05.09.2012 25.5 °C 11.8 °C 0 mm
06.09.2012 20.6 °C 11.8 °C 0 mm
07.09.2012 24.8 °C 7.6 °C 0 mm
08.09.2012 27 °C 10.1 °C 0 mm
09.09.2012 28.7 °C 12.5 °C 0 mm
10.09.2012 29.5 °C 15.6 °C 0 mm
11.09.2012 27.5 °C 14.8 °C 10.1 mm
12.09.2012 17.1 °C 10 °C 8.6 mm
13.09.2012 16.7 °C 6.2 °C 0.4 mm
14.09.2012 20.3 °C 6.3 °C 0 mm
15.09.2012 17.8 °C 10.6 °C 0.7 mm
16.09.2012 22.1 °C 7.8 °C 0 mm
17.09.2012 23.2 °C 11.3 °C 0 mm
18.09.2012 24.6 °C 10.8 °C 8.3 mm
19.09.2012 16.4 °C 10.2 °C 2.5 mm
20.09.2012 16.5 °C 5.3 °C 0 mm
21.09.2012 21.4 °C 5.7 °C 2.9 mm
22.09.2012 17.1 °C 9.6 °C 6.8 mm
23.09.2012 20.6 °C 9.5 °C 0 mm
24.09.2012 18 °C 14.4 °C 0 mm
25.09.2012 14.4 °C 10.9 °C 6.1 mm
26.09.2012 16.2 °C 9.2 °C 4 mm
27.09.2012 18.7 °C 10.3 °C 13 mm
28.09.2012 18.6 °C 9.6 °C 0 mm
29.09.2012 16.8 °C 7.2 °C 0 mm
30.09.2012 16.3 °C 5.2 °C 0 mm
01.10.2012 14.7 °C 11.2 °C 0 mm
02.10.2012 18.3 °C 8 °C 0 mm
03.10.2012 19.8 °C 9.2 °C 0 mm
04.10.2012 19.1 °C 8.2 °C 2.9 mm
05.10.2012 22.4 °C 7.2 °C 0.4 mm
06.10.2012 21.8 °C 12.7 °C 0.4 mm
07.10.2012 14.9 °C 6.7 °C 10.8 mm
08.10.2012 14.2 °C 3.6 °C 0.4 mm
09.10.2012 12.4 °C 9.2 °C 3.2 mm
10.10.2012 13.3 °C 4.9 °C 0 mm
11.10.2012 14.4 °C 3.5 °C 0 mm
12.10.2012 16.2 °C 9.4 °C 17.3 mm
13.10.2012 13.7 °C 3.9 °C 0 mm
14.10.2012 13.1 °C 7 °C 3.2 mm
15.10.2012 11.7 °C 6.7 °C 0 mm
16.10.2012 14 °C 2.9 °C 0 mm
17.10.2012 19.9 °C 6.3 °C 0 mm
18.10.2012 19.4 °C 7.6 °C 0 mm
19.10.2012 21 °C 7.7 °C 0 mm
20.10.2012 22.2 °C 7.4 °C 0 mm
21.10.2012 19.5 °C 6.7 °C 0 mm
22.10.2012 14.2 °C 6.5 °C 0 mm
23.10.2012 10.6 °C 8.1 °C 0 mm
24.10.2012 13.1 °C 6.1 °C 0 mm
25.10.2012 13.2 °C 3.4 °C 0 mm
26.10.2012 11 °C 6.3 °C 0 mm
27.10.2012 6.2 °C 0 °C 16.6 mm
28.10.2012 3.3 °C -1.6 °C 6.1 mm
29.10.2012 3.4 °C -3.7 °C 0 mm
30.10.2012 9 °C 2.4 °C 0.4 mm
31.10.2012 12.7 °C 0.7 °C 0 mm
01.11.2012 14.1 °C 4.3 °C 6.5 mm
02.11.2012 11.6 °C 5.6 °C 11.2 mm
03.11.2012 18 °C 6.6 °C 11.2 mm
04.11.2012 13.3 °C 7.3 °C 13.7 mm
05.11.2012 10.2 °C 5.2 °C 6.1 mm
06.11.2012 8.6 °C 3.7 °C 1.4 mm
07.11.2012 8.4 °C 3.7 °C 0.4 mm
08.11.2012 9.8 °C 4.8 °C 0 mm
09.11.2012 11.1 °C 1.2 °C 0 mm
10.11.2012 12.8 °C 6.1 °C 10.4 mm
11.11.2012 11 °C 8 °C 9.7 mm
12.11.2012 8 °C 3.4 °C 0 mm
13.11.2012 7.9 °C 0 °C 0 mm
14.11.2012 8.5 °C 0.1 °C 0 mm
15.11.2012 6.6 °C 4.9 °C 0 mm
16.11.2012 5.4 °C 0.3 °C 0 mm
17.11.2012 6.9 °C 1.5 °C 0 mm
18.11.2012 10.8 °C 2.9 °C 0 mm
19.11.2012 5.3 °C 0.5 °C 0 mm
20.11.2012 3.7 °C 2.2 °C 0 mm
21.11.2012 8.6 °C -0.5 °C 5.8 mm
22.11.2012 10.3 °C 2 °C 0 mm
23.11.2012 10.8 °C 1.6 °C 0 mm
24.11.2012 11.8 °C 4.4 °C 0 mm
25.11.2012 16.1 °C 3.3 °C 0 mm
26.11.2012 12.8 °C 3.4 °C 6.1 mm
27.11.2012 8.1 °C 6.3 °C 7.2 mm
28.11.2012 6.4 °C 4 °C 27.4 mm
29.11.2012 4.2 °C 0.7 °C 17.3 mm
30.11.2012 2.9 °C -2.8 °C 1.8 mm
*) Messwert für diesen Zeitpunkt noch nicht verfügbar
 Hinweis zur Datenqualität
∅ Temperatur

10.5 °C

Abweichung vom Mittel

+0.2 °C

Niederschlag

261.4 mm

Abweichung vom Mittel

171 %

29.5 °C

Lufttemperatur
10.09.2012

1026 hPa

Luftdruck
13.11.2012

35.1 km/h

Windböen
04.10.2012

261.36005 mm

Niederschlag
 

-3.7 °C

Lufttemperatur
29.10.2012

-4.1 °C

Bodentemperatur 5cm
01.01.1970

985 hPa

Luftdruck
01.11.2012
 Hinweis zur Datenqualität